Elkins, WV

3:17 PM EST on November 21, 2019 (GMT -0500)
Elkins-Randolph County

Weather History for KEKN - September, 2019

Change the Weather History Date:

Friday, September 13, 2019

  Actual Average Record
Temperature  
Mean Temperature 76 °F 63 °F  
Max Temperature 88 °F 75 °F 92 °F (1952)
Min Temperature 64 °F 52 °F 33 °F (1985)
Degree Days  
Heating Degree Days 0 3  
Month to date heating degree days 0 28  
Since 1 July heating degree days 7 58  
Cooling Degree Days 11 2  
Month to date cooling degree days 79 31  
Year to date cooling degree days 750 457  
Growing Degree Days 26 (Base 50)    
Moisture  
Dew Point 63 °F    
Average Humidity 81    
Maximum Humidity 94    
Minimum Humidity 46    
Precipitation  
Precipitation 0.00 in 0.13 in 1.21 in (1947)
Month to date precipitation T 1.57  
Year to date precipitation 37.71 34.38  
Snow  
Snow 0.00 in 0.00 in 0.00 in (2017)
Month to date snowfall 0.0 0.0  
Since 1 September snowfall 0.0 0.0  
Snow Depth 0.00 in    
Sea Level Pressure  
Sea Level Pressure 30.24 in    
Wind  
Wind Speed 2 mph ()    
Max Wind Speed 16 mph    
Max Gust Speed 22 mph    
Visibility 4.2 miles    
Events Fog    
T = Trace of Precipitation, MM = Missing Value Source: Averaged Metar Reports

Daily Weather History Graph

Daily Weather History Graph

Search for Another Location

Airport or City:

Astronomy

Sep. 13, 2019 Rise Set
Actual Time 6:58 AM EDT 7:31 PM EDT
Civil Twilight 6:32 AM EDT 7:58 PM EDT
Nautical Twilight 6:00 AM EDT 8:29 PM EDT
Astronomical Twilight 5:28 AM EDT 9:01 PM EDT
Moon 7:43 PM EDT (9/13) 6:15 AM EDT (9/13)
Length of Visible Light 13h 25m
Length of Day
12h 32m
Full, 100% of the Moon is Illuminated
Sep 13
Full
Sep 14
Full
Sep 21
Last Quarter
Sep 28
New
Oct 5
First Quarter

Hourly Weather History & Observations

Time (EDT) Temp. Heat Index Dew Point Humidity Pressure Visibility Wind Dir Wind Speed Gust Speed Precip Events Conditions
12:51 AM 66.0 °F - 63.0 °F 90% 30.20 in 4.0 mi Calm Calm - N/A   Mostly Cloudy
1:14 AM 64.9 °F - 62.1 °F 90% 30.24 in 5.0 mi Calm Calm - N/A   Scattered Clouds
1:51 AM 64.9 °F - 61.0 °F 87% 30.20 in 4.0 mi Calm Calm - N/A   Scattered Clouds
1:54 AM 64.9 °F - 62.1 °F 90% 30.24 in 1.8 mi Calm Calm - N/A   Scattered Clouds
1:56 AM 64.9 °F - 62.1 °F 90% 30.24 in 0.8 mi Calm Calm - N/A   Mist
2:05 AM 64.9 °F - 62.1 °F 90% 30.24 in 0.2 mi Calm Calm - N/A Fog Fog
2:37 AM 66.0 °F - 64.0 °F 93% 30.24 in 0.8 mi Calm Calm - N/A   Mist
2:41 AM 66.0 °F - 64.0 °F 93% 30.24 in 2.0 mi Calm Calm - N/A   Overcast
2:51 AM 66.9 °F - 64.0 °F 90% 30.21 in 2.0 mi Calm Calm - N/A   Overcast
3:08 AM 66.0 °F - 64.0 °F 93% 30.24 in 1.0 mi Calm Calm - N/A   Overcast
3:12 AM 66.0 °F - 64.0 °F 93% 30.24 in 0.2 mi Calm Calm - N/A Fog Fog
3:35 AM 66.2 °F - 62.6 °F 88% 30.24 in 1.0 mi Calm Calm - N/A   Mist
3:44 AM 66.0 °F - 63.0 °F 90% 30.24 in 2.0 mi Calm Calm - N/A   Overcast
3:51 AM 66.0 °F - 63.0 °F 90% 30.21 in 1.2 mi Calm Calm - N/A   Overcast
4:01 AM 66.0 °F - 63.0 °F 90% 30.24 in 0.5 mi Calm Calm - N/A Fog Fog
4:16 AM 66.0 °F - 63.0 °F 90% 30.25 in 2.0 mi Calm Calm - N/A   Overcast
4:32 AM 66.0 °F - 63.0 °F 90% 30.25 in 1.0 mi Calm Calm - N/A   Overcast
4:51 AM 64.9 °F - 63.0 °F 93% 30.22 in 2.0 mi Calm Calm - N/A   Overcast
5:11 AM 64.9 °F - 63.0 °F 93% 30.26 in 0.2 mi Calm Calm - N/A Fog Fog
5:51 AM 66.0 °F - 63.0 °F 90% 30.22 in 0.2 mi Calm Calm - N/A Fog Fog
6:47 AM 64.4 °F - 62.6 °F 94% 30.27 in 0.5 mi Calm Calm - N/A Fog Fog
6:51 AM 64.0 °F - 62.1 °F 93% 30.24 in 0.5 mi Calm Calm - N/A Fog Fog
7:04 AM 64.0 °F - 61.0 °F 90% 30.27 in 0.2 mi Calm Calm - N/A Fog Fog
7:15 AM 64.0 °F - 61.0 °F 90% 30.28 in 1.0 mi Calm Calm - N/A   Overcast
7:23 AM 64.0 °F - 62.1 °F 93% 30.28 in 0.5 mi Calm Calm - N/A Fog Fog
7:31 AM 64.9 °F - 62.1 °F 90% 30.28 in 0.2 mi Calm Calm - N/A Fog Fog
7:46 AM 64.4 °F - 62.6 °F 94% 30.28 in 0.5 mi WSW 3.5 mph - N/A Fog Fog
7:51 AM 64.9 °F - 62.1 °F 90% 30.26 in 1.5 mi Calm Calm - N/A   Mostly Cloudy
7:58 AM 64.9 °F - 62.1 °F 90% 30.29 in 2.0 mi Calm Calm - N/A   Mostly Cloudy
8:08 AM 66.0 °F - 63.0 °F 90% 30.29 in 4.0 mi Calm Calm - N/A   Scattered Clouds
8:51 AM 68.0 °F - 64.0 °F 87% 30.27 in 6.0 mi Calm Calm - N/A   Clear
9:51 AM 75.0 °F - 66.0 °F 73% 30.27 in 10.0 mi Calm Calm - N/A   Clear
10:51 AM 80.1 °F 82.1 °F 66.0 °F 62% 30.26 in 10.0 mi SW 5.8 mph - N/A   Clear
11:51 AM 84.0 °F 85.8 °F 64.9 °F 53% 30.25 in 10.0 mi SSE 11.5 mph 16.1 mph N/A   Clear
12:51 PM 84.9 °F 86.6 °F 64.9 °F 51% 30.25 in 10.0 mi SE 9.2 mph - N/A   Mostly Cloudy
1:51 PM 86.0 °F 87.3 °F 64.0 °F 48% 30.23 in 10.0 mi SE 9.2 mph 17.3 mph N/A   Partly Cloudy
2:51 PM 87.1 °F 88.9 °F 64.9 °F 48% 30.21 in 10.0 mi SSE 15.0 mph 19.6 mph N/A   Partly Cloudy
4:51 PM 84.0 °F 85.4 °F 64.0 °F 51% 30.20 in 10.0 mi South 10.4 mph 19.6 mph N/A   Scattered Clouds
5:51 PM 82.0 °F 83.4 °F 64.0 °F 54% 30.20 in 10.0 mi SE 13.8 mph 19.6 mph N/A   Clear
6:51 PM 78.1 °F - 63.0 °F 60% 30.22 in 10.0 mi SE 8.1 mph - N/A   Partly Cloudy
7:51 PM 73.9 °F - 62.1 °F 66% 30.24 in 10.0 mi SSE 9.2 mph - N/A   Clear
8:51 PM 72.0 °F - 62.1 °F 71% 30.25 in 10.0 mi SE 9.2 mph - N/A   Clear
9:51 PM 72.0 °F - 61.0 °F 68% 30.25 in 10.0 mi SSE 8.1 mph - N/A   Clear
10:51 PM 71.1 °F - 61.0 °F 70% 30.25 in 10.0 mi South 9.2 mph - N/A   Clear
11:51 PM 70.0 °F - 61.0 °F 73% 30.24 in 10.0 mi South 9.2 mph - N/A   Clear